Year,Month,Day,Hour,Minute,Value (Times are PST for temperature in C)
2006,07,04,00,00,14.50
2006,07,04,00,01,14.50
2006,07,04,00,02,14.40
2006,07,04,00,03,14.40
2006,07,04,00,04,14.40
2006,07,04,00,05,14.40
2006,07,04,00,06,14.30
2006,07,04,00,07,14.30
2006,07,04,00,08,14.30
2006,07,04,00,09,14.30
2006,07,04,00,10,14.20
2006,07,04,00,11,14.20
2006,07,04,00,12,14.20
2006,07,04,00,13,14.20
2006,07,04,00,14,14.20
2006,07,04,00,15,14.20
2006,07,04,00,16,14.20
2006,07,04,00,17,14.20
2006,07,04,00,18,14.20
2006,07,04,00,19,14.10
2006,07,04,00,20,14.10
2006,07,04,00,21,14.10
2006,07,04,00,22,14.10
2006,07,04,00,23,14.00
2006,07,04,00,24,14.00
2006,07,04,00,25,14.00
2006,07,04,00,26,14.00
2006,07,04,00,27,14.00
2006,07,04,00,28,14.00
2006,07,04,00,29,13.90
2006,07,04,00,30,13.90
2006,07,04,00,31,13.90
2006,07,04,00,32,13.90
2006,07,04,00,33,13.90
2006,07,04,00,34,13.90
2006,07,04,00,35,13.90
2006,07,04,00,36,13.90
2006,07,04,00,37,13.90
2006,07,04,00,38,13.90
2006,07,04,00,39,13.90
2006,07,04,00,40,13.90
2006,07,04,00,41,13.80
2006,07,04,00,42,13.80
2006,07,04,00,43,13.80
2006,07,04,00,44,13.80
2006,07,04,00,45,13.80
2006,07,04,00,46,13.80
2006,07,04,00,47,13.80
2006,07,04,00,48,13.80
2006,07,04,00,49,13.70
2006,07,04,00,50,13.70
2006,07,04,00,51,13.70
2006,07,04,00,52,13.70
2006,07,04,00,53,13.70
2006,07,04,00,54,13.70
2006,07,04,00,55,13.70
2006,07,04,00,56,13.70
2006,07,04,00,57,13.70
2006,07,04,00,58,13.70
2006,07,04,00,59,13.70
2006,07,04,01,00,13.70
2006,07,04,01,01,13.70
2006,07,04,01,02,13.70
2006,07,04,01,03,13.70
2006,07,04,01,04,13.70
2006,07,04,01,05,13.70
2006,07,04,01,06,13.70
2006,07,04,01,07,13.70
2006,07,04,01,08,13.70
2006,07,04,01,09,13.70
2006,07,04,01,10,13.70
2006,07,04,01,11,13.70
2006,07,04,01,12,13.70
2006,07,04,01,13,13.70
2006,07,04,01,14,13.70
2006,07,04,01,15,13.70
2006,07,04,01,16,13.70
2006,07,04,01,17,13.70
2006,07,04,01,18,13.70
2006,07,04,01,19,13.70
2006,07,04,01,20,13.70
2006,07,04,01,21,13.70
2006,07,04,01,22,13.70
2006,07,04,01,23,13.70
2006,07,04,01,24,13.60
2006,07,04,01,25,13.60
2006,07,04,01,26,13.60
2006,07,04,01,27,13.60
2006,07,04,01,28,13.60
2006,07,04,01,29,13.60
2006,07,04,01,30,13.60
2006,07,04,01,31,13.50
2006,07,04,01,32,13.50
2006,07,04,01,33,13.50
2006,07,04,01,34,13.50
2006,07,04,01,35,13.50
2006,07,04,01,36,13.50
2006,07,04,01,37,13.50
2006,07,04,01,38,13.50
2006,07,04,01,39,13.50
2006,07,04,01,40,13.50
2006,07,04,01,41,13.40
2006,07,04,01,42,13.40
2006,07,04,01,43,13.40
2006,07,04,01,44,13.40
2006,07,04,01,45,13.40
2006,07,04,01,46,13.40
2006,07,04,01,47,13.30
2006,07,04,01,48,13.30
2006,07,04,01,49,13.30
2006,07,04,01,50,13.30
2006,07,04,01,51,13.30
2006,07,04,01,52,13.30
2006,07,04,01,53,13.30
2006,07,04,01,54,13.30
2006,07,04,01,55,13.30
2006,07,04,01,56,13.30
2006,07,04,01,57,13.30
2006,07,04,01,58,13.30
2006,07,04,01,59,13.30
2006,07,04,02,00,13.30
2006,07,04,02,01,13.30
2006,07,04,02,02,13.30
2006,07,04,02,03,13.30
2006,07,04,02,04,13.30
2006,07,04,02,05,13.30
2006,07,04,02,06,13.30
2006,07,04,02,07,13.30
2006,07,04,02,08,13.30
2006,07,04,02,09,13.30
2006,07,04,02,10,13.30
2006,07,04,02,11,13.30
2006,07,04,02,12,13.30
2006,07,04,02,13,13.20
2006,07,04,02,14,13.20
2006,07,04,02,15,13.20
2006,07,04,02,16,13.20
2006,07,04,02,17,13.20
2006,07,04,02,18,13.20
2006,07,04,02,19,13.20
2006,07,04,02,20,13.20
2006,07,04,02,21,13.20
2006,07,04,02,22,13.20
2006,07,04,02,23,13.20
2006,07,04,02,24,13.20
2006,07,04,02,25,13.20
2006,07,04,02,26,13.20
2006,07,04,02,27,13.20
2006,07,04,02,28,13.20
2006,07,04,02,29,13.20
2006,07,04,02,30,13.10
2006,07,04,02,31,13.10
2006,07,04,02,32,13.10
2006,07,04,02,33,13.10
2006,07,04,02,34,13.10
2006,07,04,02,35,13.10
2006,07,04,02,36,13.10
2006,07,04,02,37,13.00
2006,07,04,02,38,13.00
2006,07,04,02,39,13.00
2006,07,04,02,40,13.00
2006,07,04,02,41,13.00
2006,07,04,02,42,13.00
2006,07,04,02,43,13.00
2006,07,04,02,44,13.00
2006,07,04,02,45,13.00
2006,07,04,02,46,13.00
2006,07,04,02,47,12.90
2006,07,04,02,48,12.90
2006,07,04,02,49,12.90
2006,07,04,02,50,12.90
2006,07,04,02,51,12.90
2006,07,04,02,52,12.90
2006,07,04,02,53,12.90
2006,07,04,02,54,12.90
2006,07,04,02,55,12.90
2006,07,04,02,56,12.90
2006,07,04,02,57,12.80
2006,07,04,02,58,12.80
2006,07,04,02,59,12.80
2006,07,04,03,00,12.80
2006,07,04,03,01,12.80
2006,07,04,03,02,12.80
2006,07,04,03,03,12.80
2006,07,04,03,04,12.80
2006,07,04,03,05,12.80
2006,07,04,03,06,12.80
2006,07,04,03,07,12.80
2006,07,04,03,08,12.70
2006,07,04,03,09,12.70
2006,07,04,03,10,12.70
2006,07,04,03,11,12.70
2006,07,04,03,12,12.80
2006,07,04,03,13,12.80
2006,07,04,03,14,12.80
2006,07,04,03,15,12.80
2006,07,04,03,16,12.80
2006,07,04,03,17,12.80
2006,07,04,03,18,12.70
2006,07,04,03,19,12.70
2006,07,04,03,20,12.70
2006,07,04,03,21,12.80
2006,07,04,03,22,12.80
2006,07,04,03,23,12.70
2006,07,04,03,24,12.70
2006,07,04,03,25,12.70
2006,07,04,03,26,12.70
2006,07,04,03,27,12.70
2006,07,04,03,28,12.60
2006,07,04,03,29,12.60
2006,07,04,03,30,12.60
2006,07,04,03,31,12.50
2006,07,04,03,32,12.50
2006,07,04,03,33,12.50
2006,07,04,03,34,12.50
2006,07,04,03,35,12.50
2006,07,04,03,36,12.40
2006,07,04,03,37,12.40
2006,07,04,03,38,12.40
2006,07,04,03,39,12.40
2006,07,04,03,40,12.30
2006,07,04,03,41,12.30
2006,07,04,03,42,12.30
2006,07,04,03,43,12.30
2006,07,04,03,44,12.30
2006,07,04,03,45,12.30
2006,07,04,03,46,12.30
2006,07,04,03,47,12.30
2006,07,04,03,48,12.30
2006,07,04,03,49,12.30
2006,07,04,03,50,12.30
2006,07,04,03,51,12.30
2006,07,04,03,52,12.30
2006,07,04,03,53,12.30
2006,07,04,03,54,12.30
2006,07,04,03,55,12.30
2006,07,04,03,56,12.40
2006,07,04,03,57,12.40
2006,07,04,03,58,12.40
2006,07,04,03,59,12.40
2006,07,04,04,00,12.40
2006,07,04,04,01,12.40
2006,07,04,04,02,12.40
2006,07,04,04,03,12.40
2006,07,04,04,04,12.40
2006,07,04,04,05,12.30
2006,07,04,04,06,12.30
2006,07,04,04,07,12.30
2006,07,04,04,08,12.30
2006,07,04,04,09,12.30
2006,07,04,04,10,12.30
2006,07,04,04,11,12.30
2006,07,04,04,12,12.30
2006,07,04,04,13,12.30
2006,07,04,04,14,12.30
2006,07,04,04,15,12.30
2006,07,04,04,16,12.30
2006,07,04,04,17,12.30
2006,07,04,04,18,12.30
2006,07,04,04,19,12.20
2006,07,04,04,20,12.20
2006,07,04,04,21,12.20
2006,07,04,04,22,12.20
2006,07,04,04,23,12.20
2006,07,04,04,24,12.20
2006,07,04,04,25,12.10
2006,07,04,04,26,12.10
2006,07,04,04,27,12.10
2006,07,04,04,28,12.10
2006,07,04,04,29,12.10
2006,07,04,04,30,12.10
2006,07,04,04,31,12.10
2006,07,04,04,32,12.10
2006,07,04,04,33,12.10
2006,07,04,04,34,12.10
2006,07,04,04,35,12.20
2006,07,04,04,36,12.20
2006,07,04,04,37,12.30
2006,07,04,04,38,12.30
2006,07,04,04,39,12.30
2006,07,04,04,40,12.30
2006,07,04,04,41,12.30
2006,07,04,04,42,12.40
2006,07,04,04,43,12.40
2006,07,04,04,44,12.40
2006,07,04,04,45,12.40
2006,07,04,04,46,12.40
2006,07,04,04,47,12.40
2006,07,04,04,48,12.40
2006,07,04,04,49,12.40
2006,07,04,04,50,12.40
2006,07,04,04,51,12.40
2006,07,04,04,52,12.30
2006,07,04,04,53,12.30
2006,07,04,04,54,12.30
2006,07,04,04,55,12.30
2006,07,04,04,56,12.30
2006,07,04,04,57,12.30
2006,07,04,04,58,12.30
2006,07,04,04,59,12.20
2006,07,04,05,00,12.20
2006,07,04,05,01,12.20
2006,07,04,05,02,12.20
2006,07,04,05,03,12.20
2006,07,04,05,04,12.20
2006,07,04,05,05,12.20
2006,07,04,05,06,12.10
2006,07,04,05,07,12.10
2006,07,04,05,08,12.10
2006,07,04,05,09,12.10
2006,07,04,05,10,12.00
2006,07,04,05,11,12.00
2006,07,04,05,12,12.00
2006,07,04,05,13,12.00
2006,07,04,05,14,12.00
2006,07,04,05,15,12.00
2006,07,04,05,16,11.90
2006,07,04,05,17,11.90
2006,07,04,05,18,11.90
2006,07,04,05,19,11.90
2006,07,04,05,20,11.90
2006,07,04,05,21,11.90
2006,07,04,05,22,11.90
2006,07,04,05,23,11.90
2006,07,04,05,24,11.90
2006,07,04,05,25,11.90
2006,07,04,05,26,11.80
2006,07,04,05,27,11.90
2006,07,04,05,28,11.90
2006,07,04,05,29,11.90
2006,07,04,05,30,11.90
2006,07,04,05,31,11.90
2006,07,04,05,32,11.90
2006,07,04,05,33,11.90
2006,07,04,05,34,11.90
2006,07,04,05,35,12.00
2006,07,04,05,36,12.00
2006,07,04,05,37,12.10
2006,07,04,05,38,12.10
2006,07,04,05,39,12.10
2006,07,04,05,40,12.20
2006,07,04,05,41,12.20
2006,07,04,05,42,12.20
2006,07,04,05,43,12.20
2006,07,04,05,44,12.30
2006,07,04,05,45,12.30
2006,07,04,05,46,12.30
2006,07,04,05,47,12.30
2006,07,04,05,48,12.30
2006,07,04,05,49,12.30
2006,07,04,05,50,12.30
2006,07,04,05,51,12.30
2006,07,04,05,52,12.30
2006,07,04,05,53,12.30
2006,07,04,05,54,12.30
2006,07,04,05,55,12.30
2006,07,04,05,56,12.30
2006,07,04,05,57,12.30
2006,07,04,05,58,12.30
2006,07,04,05,59,12.40
2006,07,04,06,00,12.40
2006,07,04,06,01,12.40
2006,07,04,06,02,12.40
2006,07,04,06,03,12.40
2006,07,04,06,04,12.40
2006,07,04,06,05,12.40
2006,07,04,06,06,12.40
2006,07,04,06,07,12.40
2006,07,04,06,08,12.40
2006,07,04,06,09,12.40
2006,07,04,06,10,12.40
2006,07,04,06,11,12.40
2006,07,04,06,12,12.40
2006,07,04,06,13,12.40
2006,07,04,06,14,12.40
2006,07,04,06,15,12.30
2006,07,04,06,16,12.30
2006,07,04,06,17,12.30
2006,07,04,06,18,12.30
2006,07,04,06,19,12.30
2006,07,04,06,20,12.30
2006,07,04,06,21,12.30
2006,07,04,06,22,12.30
2006,07,04,06,23,12.30
2006,07,04,06,24,12.30
2006,07,04,06,25,12.30
2006,07,04,06,26,12.30
2006,07,04,06,27,12.30
2006,07,04,06,28,12.40
2006,07,04,06,29,12.40
2006,07,04,06,30,12.40
2006,07,04,06,31,12.40
2006,07,04,06,32,12.40
2006,07,04,06,33,12.50
2006,07,04,06,34,12.50
2006,07,04,06,35,12.50
2006,07,04,06,36,12.50
2006,07,04,06,37,12.50
2006,07,04,06,38,12.50
2006,07,04,06,39,12.50
2006,07,04,06,40,12.60
2006,07,04,06,41,12.60
2006,07,04,06,42,12.60
2006,07,04,06,43,12.60
2006,07,04,06,44,12.60
2006,07,04,06,45,12.60
2006,07,04,06,46,12.70
2006,07,04,06,47,12.70
2006,07,04,06,48,12.70
2006,07,04,06,49,12.80
2006,07,04,06,50,12.80
2006,07,04,06,51,12.80
2006,07,04,06,52,12.80
2006,07,04,06,53,12.80
2006,07,04,06,54,12.80
2006,07,04,06,55,12.80
2006,07,04,06,56,12.80
2006,07,04,06,57,12.90
2006,07,04,06,58,12.90
2006,07,04,06,59,12.90
2006,07,04,07,00,12.90
2006,07,04,07,01,13.00
2006,07,04,07,02,13.00
2006,07,04,07,03,13.00
2006,07,04,07,04,13.10
2006,07,04,07,05,13.10
2006,07,04,07,06,13.10
2006,07,04,07,07,13.20
2006,07,04,07,08,13.20
2006,07,04,07,09,13.30
2006,07,04,07,10,13.30
2006,07,04,07,11,13.30
2006,07,04,07,12,13.30
2006,07,04,07,13,13.30
2006,07,04,07,14,13.30
2006,07,04,07,15,13.30
2006,07,04,07,16,13.30
2006,07,04,07,17,13.30
2006,07,04,07,18,13.30
2006,07,04,07,19,13.30
2006,07,04,07,20,13.30
2006,07,04,07,21,13.30
2006,07,04,07,22,13.30
2006,07,04,07,23,13.30
2006,07,04,07,24,13.30
2006,07,04,07,25,13.30
2006,07,04,07,26,13.30
2006,07,04,07,27,13.30
2006,07,04,07,28,13.30
2006,07,04,07,29,13.30
2006,07,04,07,30,13.30
2006,07,04,07,31,13.30
2006,07,04,07,32,13.30
2006,07,04,07,33,13.30
2006,07,04,07,34,13.40
2006,07,04,07,35,13.40
2006,07,04,07,36,13.50
2006,07,04,07,37,13.50
2006,07,04,07,38,13.50
2006,07,04,07,39,13.60
2006,07,04,07,40,13.60
2006,07,04,07,41,13.60
2006,07,04,07,42,13.60
2006,07,04,07,43,13.60
2006,07,04,07,44,13.70
2006,07,04,07,45,13.70
2006,07,04,07,46,13.70
2006,07,04,07,47,13.70
2006,07,04,07,48,13.70
2006,07,04,07,49,13.80
2006,07,04,07,50,13.80
2006,07,04,07,51,13.90
2006,07,04,07,52,13.90
2006,07,04,07,53,14.00
2006,07,04,07,54,14.00
2006,07,04,07,55,14.10
2006,07,04,07,56,14.10
2006,07,04,07,57,14.20
2006,07,04,07,58,14.20
2006,07,04,07,59,14.20
2006,07,04,08,00,14.20
2006,07,04,08,01,14.20
2006,07,04,08,02,14.20
2006,07,04,08,03,14.20
2006,07,04,08,04,14.30
2006,07,04,08,05,14.30
2006,07,04,08,06,14.30
2006,07,04,08,07,14.40
2006,07,04,08,08,14.40
2006,07,04,08,09,14.40
2006,07,04,08,10,14.50
2006,07,04,08,11,14.50
2006,07,04,08,12,14.60
2006,07,04,08,13,14.60
2006,07,04,08,14,14.70
2006,07,04,08,15,14.70
2006,07,04,08,16,14.80
2006,07,04,08,17,14.80
2006,07,04,08,18,14.80
2006,07,04,08,19,14.80
2006,07,04,08,20,14.80
2006,07,04,08,21,14.80
2006,07,04,08,22,14.80
2006,07,04,08,23,14.90
2006,07,04,08,24,14.90
2006,07,04,08,25,15.00
2006,07,04,08,26,15.00
2006,07,04,08,27,15.10
2006,07,04,08,28,15.10
2006,07,04,08,29,15.10
2006,07,04,08,30,15.10
2006,07,04,08,31,15.10
2006,07,04,08,32,15.10
2006,07,04,08,33,15.20
2006,07,04,08,34,15.20
2006,07,04,08,35,15.20
2006,07,04,08,36,15.30
2006,07,04,08,37,15.30
2006,07,04,08,38,15.30
2006,07,04,08,39,15.40
2006,07,04,08,40,15.40
2006,07,04,08,41,15.50
2006,07,04,08,42,15.50
2006,07,04,08,43,15.50
2006,07,04,08,44,15.60
2006,07,04,08,45,15.60
2006,07,04,08,46,15.70
2006,07,04,08,47,15.70
2006,07,04,08,48,15.80
2006,07,04,08,49,15.80
2006,07,04,08,50,15.80
2006,07,04,08,51,15.80
2006,07,04,08,52,15.80
2006,07,04,08,53,15.80
2006,07,04,08,54,15.80
2006,07,04,08,55,15.80
2006,07,04,08,56,15.80
2006,07,04,08,57,15.90
2006,07,04,08,58,15.90
2006,07,04,08,59,15.90
2006,07,04,09,00,15.90
2006,07,04,09,01,15.90
2006,07,04,09,02,15.90
2006,07,04,09,03,15.90
2006,07,04,09,04,16.00
2006,07,04,09,05,16.10
2006,07,04,09,06,16.10
2006,07,04,09,07,16.00
2006,07,04,09,08,15.90
2006,07,04,09,09,15.80
2006,07,04,09,10,15.70
2006,07,04,09,11,15.60
2006,07,04,09,12,15.50
2006,07,04,09,13,15.40
2006,07,04,09,14,15.40
2006,07,04,09,15,15.40
2006,07,04,09,16,15.40
2006,07,04,09,17,15.40
2006,07,04,09,18,15.30
2006,07,04,09,19,15.30
2006,07,04,09,20,15.30
2006,07,04,09,21,15.30
2006,07,04,09,22,15.20
2006,07,04,09,23,15.20
2006,07,04,09,24,15.10
2006,07,04,09,25,15.00
2006,07,04,09,26,14.90
2006,07,04,09,27,14.90
2006,07,04,09,28,14.80
2006,07,04,09,29,14.80
2006,07,04,09,30,14.80
2006,07,04,09,31,14.80
2006,07,04,09,32,14.80
2006,07,04,09,33,14.80
2006,07,04,09,34,14.80
2006,07,04,09,35,14.80
2006,07,04,09,36,14.80
2006,07,04,09,37,14.90
2006,07,04,09,38,15.00
2006,07,04,09,39,15.00
2006,07,04,09,40,15.10
2006,07,04,09,41,15.20
2006,07,04,09,42,15.20
2006,07,04,09,43,15.10
2006,07,04,09,44,15.10
2006,07,04,09,45,15.00
2006,07,04,09,46,14.90
2006,07,04,09,47,14.90
2006,07,04,09,48,14.80
2006,07,04,09,49,14.80
2006,07,04,09,50,14.90
2006,07,04,09,51,14.90
2006,07,04,09,52,15.00
2006,07,04,09,53,15.00
2006,07,04,09,54,15.10
2006,07,04,09,55,15.10
2006,07,04,09,56,15.20
2006,07,04,09,57,15.30
2006,07,04,09,58,15.30
2006,07,04,09,59,15.30
2006,07,04,10,00,15.40
2006,07,04,10,01,15.40
2006,07,04,10,02,15.40
2006,07,04,10,03,15.50
2006,07,04,10,04,15.50
2006,07,04,10,05,15.50
2006,07,04,10,06,15.60
2006,07,04,10,07,15.60
2006,07,04,10,08,15.60
2006,07,04,10,09,15.70
2006,07,04,10,10,15.70
2006,07,04,10,11,15.80
2006,07,04,10,12,15.80
2006,07,04,10,13,15.80
2006,07,04,10,14,15.80
2006,07,04,10,15,15.90
2006,07,04,10,16,15.90
2006,07,04,10,17,15.80
2006,07,04,10,18,15.90
2006,07,04,10,19,15.90
2006,07,04,10,20,15.90
2006,07,04,10,21,15.90
2006,07,04,10,22,15.90
2006,07,04,10,23,15.90
2006,07,04,10,24,15.90
2006,07,04,10,25,15.90
2006,07,04,10,26,15.80
2006,07,04,10,27,15.70
2006,07,04,10,28,15.60
2006,07,04,10,29,15.50
2006,07,04,10,30,15.50
2006,07,04,10,31,15.50
2006,07,04,10,32,15.50
2006,07,04,10,33,15.50
2006,07,04,10,34,15.50
2006,07,04,10,35,15.50
2006,07,04,10,36,15.60
2006,07,04,10,37,15.60
2006,07,04,10,38,15.70
2006,07,04,10,39,15.70
2006,07,04,10,40,15.80
2006,07,04,10,41,16.00
2006,07,04,10,42,16.20
2006,07,04,10,43,16.30
2006,07,04,10,44,16.50
2006,07,04,10,45,16.70
2006,07,04,10,46,16.90
2006,07,04,10,47,16.90
2006,07,04,10,48,16.90
2006,07,04,10,49,16.90
2006,07,04,10,50,16.90
2006,07,04,10,51,16.90
2006,07,04,10,52,16.90
2006,07,04,10,53,16.90
2006,07,04,10,54,17.00
2006,07,04,10,55,17.00
2006,07,04,10,56,17.10
2006,07,04,10,57,17.20
2006,07,04,10,58,17.30
2006,07,04,10,59,17.40
2006,07,04,11,00,17.50
2006,07,04,11,01,17.50
2006,07,04,11,02,17.50
2006,07,04,11,03,17.70
2006,07,04,11,04,17.70
2006,07,04,11,05,17.80
2006,07,04,11,06,17.90
2006,07,04,11,07,18.00
2006,07,04,11,08,18.20
2006,07,04,11,09,18.30
2006,07,04,11,10,18.40
2006,07,04,11,11,18.50
2006,07,04,11,12,18.60
2006,07,04,11,13,18.60
2006,07,04,11,14,18.60
2006,07,04,11,15,18.70
2006,07,04,11,16,18.70
2006,07,04,11,17,18.70
2006,07,04,11,18,18.70
2006,07,04,11,19,18.70
2006,07,04,11,20,18.70
2006,07,04,11,21,18.70
2006,07,04,11,22,18.80
2006,07,04,11,23,18.80
2006,07,04,11,24,18.90
2006,07,04,11,25,18.90
2006,07,04,11,26,18.90
2006,07,04,11,27,18.80
2006,07,04,11,28,18.90
2006,07,04,11,29,18.90
2006,07,04,11,30,18.80
2006,07,04,11,31,18.80
2006,07,04,11,32,18.80
2006,07,04,11,33,18.80
2006,07,04,11,34,18.80
2006,07,04,11,35,18.90
2006,07,04,11,36,19.00
2006,07,04,11,37,19.10
2006,07,04,11,38,19.30
2006,07,04,11,39,19.40
2006,07,04,11,40,19.50
2006,07,04,11,41,19.50
2006,07,04,11,42,19.60
2006,07,04,11,43,19.60
2006,07,04,11,44,19.60
2006,07,04,11,45,19.60
2006,07,04,11,46,19.60
2006,07,04,11,47,19.80
2006,07,04,11,48,19.90
2006,07,04,11,49,20.00
2006,07,04,11,50,20.20
2006,07,04,11,51,20.40
2006,07,04,11,52,20.40
2006,07,04,11,53,20.30
2006,07,04,11,54,20.20
2006,07,04,11,55,20.30
2006,07,04,11,56,20.30
2006,07,04,11,57,20.30
2006,07,04,11,58,20.40
2006,07,04,11,59,20.50
2006,07,04,12,00,20.50
2006,07,04,12,01,20.60
2006,07,04,12,02,20.40
2006,07,04,12,03,20.10
2006,07,04,12,04,20.00
2006,07,04,12,05,19.90
2006,07,04,12,06,19.80
2006,07,04,12,07,19.70
2006,07,04,12,08,19.60
2006,07,04,12,09,19.40
2006,07,04,12,10,19.10
2006,07,04,12,11,19.00
2006,07,04,12,12,18.90
2006,07,04,12,13,18.80
2006,07,04,12,14,18.90
2006,07,04,12,15,18.90
2006,07,04,12,16,18.90
2006,07,04,12,17,19.00
2006,07,04,12,18,19.00
2006,07,04,12,19,18.90
2006,07,04,12,20,18.90
2006,07,04,12,21,18.70
2006,07,04,12,22,18.80
2006,07,04,12,23,18.90
2006,07,04,12,24,19.00
2006,07,04,12,25,19.10
2006,07,04,12,26,19.30
2006,07,04,12,27,19.40
2006,07,04,12,28,19.50
2006,07,04,12,29,19.50
2006,07,04,12,30,19.50
2006,07,04,12,31,19.50
2006,07,04,12,32,19.40
2006,07,04,12,33,19.30
2006,07,04,12,34,19.20
2006,07,04,12,35,19.10
2006,07,04,12,36,19.00
2006,07,04,12,37,18.90
2006,07,04,12,38,18.90
2006,07,04,12,39,18.80
2006,07,04,12,40,18.80
2006,07,04,12,41,18.80
2006,07,04,12,42,18.80
2006,07,04,12,43,18.90
2006,07,04,12,44,18.90
2006,07,04,12,45,19.00
2006,07,04,12,46,19.10
2006,07,04,12,47,19.20
2006,07,04,12,48,19.10
2006,07,04,12,49,19.10
2006,07,04,12,50,19.10
2006,07,04,12,51,19.30
2006,07,04,12,52,19.40
2006,07,04,12,53,19.40
2006,07,04,12,54,19.30
2006,07,04,12,55,19.20
2006,07,04,12,56,19.20
2006,07,04,12,57,19.20
2006,07,04,12,58,19.30
2006,07,04,12,59,19.50
2006,07,04,13,00,19.40
2006,07,04,13,01,19.40
2006,07,04,13,02,19.30
2006,07,04,13,03,19.20
2006,07,04,13,04,19.10
2006,07,04,13,05,19.10
2006,07,04,13,06,18.90
2006,07,04,13,07,18.90
2006,07,04,13,08,19.10
2006,07,04,13,09,19.10
2006,07,04,13,10,19.10
2006,07,04,13,11,19.20
2006,07,04,13,12,19.20
2006,07,04,13,13,19.30
2006,07,04,13,14,19.40
2006,07,04,13,15,19.40
2006,07,04,13,16,19.50
2006,07,04,13,17,19.60
2006,07,04,13,18,19.60
2006,07,04,13,19,19.70
2006,07,04,13,20,19.80
2006,07,04,13,21,19.80
2006,07,04,13,22,19.90
2006,07,04,13,23,19.90
2006,07,04,13,24,19.90
2006,07,04,13,25,19.90
2006,07,04,13,26,19.90
2006,07,04,13,27,19.80
2006,07,04,13,28,19.80
2006,07,04,13,29,19.90
2006,07,04,13,30,19.90
2006,07,04,13,31,19.80
2006,07,04,13,32,19.90
2006,07,04,13,33,20.00
2006,07,04,13,34,20.00
2006,07,04,13,35,19.90
2006,07,04,13,36,19.90
2006,07,04,13,37,19.90
2006,07,04,13,38,19.90
2006,07,04,13,39,19.90
2006,07,04,13,40,20.00
2006,07,04,13,41,20.10
2006,07,04,13,42,20.20
2006,07,04,13,43,20.20
2006,07,04,13,44,20.20
2006,07,04,13,45,20.30
2006,07,04,13,46,20.40
2006,07,04,13,47,20.40
2006,07,04,13,48,20.50
2006,07,04,13,49,20.60
2006,07,04,13,50,20.60
2006,07,04,13,51,20.60
2006,07,04,13,52,20.60
2006,07,04,13,53,20.60
2006,07,04,13,54,20.70
2006,07,04,13,55,20.70
2006,07,04,13,56,20.70
2006,07,04,13,57,20.70
2006,07,04,13,58,20.60
2006,07,04,13,59,20.60
2006,07,04,14,00,20.60
2006,07,04,14,01,20.50
2006,07,04,14,02,20.50
2006,07,04,14,03,20.50
2006,07,04,14,04,20.60
2006,07,04,14,05,20.60
2006,07,04,14,06,20.70
2006,07,04,14,07,20.70
2006,07,04,14,08,20.80
2006,07,04,14,09,20.80
2006,07,04,14,10,20.90
2006,07,04,14,11,20.90
2006,07,04,14,12,20.80
2006,07,04,14,13,20.80
2006,07,04,14,14,20.90
2006,07,04,14,15,21.00
2006,07,04,14,16,21.10
2006,07,04,14,17,21.20
2006,07,04,14,18,21.30
2006,07,04,14,19,21.30
2006,07,04,14,20,21.30
2006,07,04,14,21,21.40
2006,07,04,14,22,21.40
2006,07,04,14,23,21.30
2006,07,04,14,24,21.30
2006,07,04,14,25,21.30
2006,07,04,14,26,21.30
2006,07,04,14,27,21.30
2006,07,04,14,28,21.30
2006,07,04,14,29,21.30
2006,07,04,14,30,21.30
2006,07,04,14,31,21.30
2006,07,04,14,32,21.40
2006,07,04,14,33,21.40
2006,07,04,14,34,21.40
2006,07,04,14,35,21.40
2006,07,04,14,36,21.50
2006,07,04,14,37,21.70
2006,07,04,14,38,21.80
2006,07,04,14,39,21.90
2006,07,04,14,40,22.00
2006,07,04,14,41,22.00
2006,07,04,14,42,22.10
2006,07,04,14,43,22.10
2006,07,04,14,44,22.10
2006,07,04,14,45,22.10
2006,07,04,14,46,21.90
2006,07,04,14,47,21.80
2006,07,04,14,48,21.90
2006,07,04,14,49,21.90
2006,07,04,14,50,21.90
2006,07,04,14,51,22.00
2006,07,04,14,52,22.00
2006,07,04,14,53,22.00
2006,07,04,14,54,22.00
2006,07,04,14,55,22.00
2006,07,04,14,56,22.00
2006,07,04,14,57,22.00
2006,07,04,14,58,22.10
2006,07,04,14,59,22.10
2006,07,04,15,00,22.20
2006,07,04,15,01,22.10
2006,07,04,15,02,22.20
2006,07,04,15,03,22.20
2006,07,04,15,04,22.30
2006,07,04,15,05,22.30
2006,07,04,15,06,22.20
2006,07,04,15,07,22.30
2006,07,04,15,08,22.30
2006,07,04,15,09,22.40
2006,07,04,15,10,22.40
2006,07,04,15,11,22.40
2006,07,04,15,12,22.40
2006,07,04,15,13,22.50
2006,07,04,15,14,22.50
2006,07,04,15,15,22.60
2006,07,04,15,16,22.60
2006,07,04,15,17,22.70
2006,07,04,15,18,22.80
2006,07,04,15,19,22.80
2006,07,04,15,20,22.70
2006,07,04,15,21,22.70
2006,07,04,15,22,22.70
2006,07,04,15,23,22.70
2006,07,04,15,24,22.70
2006,07,04,15,25,22.60
2006,07,04,15,26,22.60
2006,07,04,15,27,22.70
2006,07,04,15,28,22.60
2006,07,04,15,29,22.60
2006,07,04,15,30,22.60
2006,07,04,15,31,22.60
2006,07,04,15,32,22.60
2006,07,04,15,33,22.60
2006,07,04,15,34,22.50
2006,07,04,15,35,22.50
2006,07,04,15,36,22.50
2006,07,04,15,37,22.50
2006,07,04,15,38,22.50
2006,07,04,15,39,22.60
2006,07,04,15,40,22.70
2006,07,04,15,41,22.90
2006,07,04,15,42,22.90
2006,07,04,15,43,22.90
2006,07,04,15,44,22.90
2006,07,04,15,45,22.90
2006,07,04,15,46,22.90
2006,07,04,15,47,22.90
2006,07,04,15,48,22.90
2006,07,04,15,49,23.10
2006,07,04,15,50,23.10
2006,07,04,15,51,23.20
2006,07,04,15,52,23.20
2006,07,04,15,53,23.20
2006,07,04,15,54,23.10
2006,07,04,15,55,23.10
2006,07,04,15,56,23.20
2006,07,04,15,57,23.20
2006,07,04,15,58,23.20
2006,07,04,15,59,23.30
2006,07,04,16,00,23.30
2006,07,04,16,01,23.30
2006,07,04,16,02,23.40
2006,07,04,16,03,23.40
2006,07,04,16,04,23.30
2006,07,04,16,05,23.30
2006,07,04,16,06,23.20
2006,07,04,16,07,23.10
2006,07,04,16,08,23.00
2006,07,04,16,09,22.90
2006,07,04,16,10,23.00
2006,07,04,16,11,23.10
2006,07,04,16,12,23.10
2006,07,04,16,13,23.10
2006,07,04,16,14,23.20
2006,07,04,16,15,23.30
2006,07,04,16,16,23.30
2006,07,04,16,17,23.40
2006,07,04,16,18,23.50
2006,07,04,16,19,23.60
2006,07,04,16,20,23.70
2006,07,04,16,21,23.70
2006,07,04,16,22,23.60
2006,07,04,16,23,23.60
2006,07,04,16,24,23.70
2006,07,04,16,25,23.70
2006,07,04,16,26,23.70
2006,07,04,16,27,23.70
2006,07,04,16,28,23.70
2006,07,04,16,29,23.70
2006,07,04,16,30,23.70
2006,07,04,16,31,23.60
2006,07,04,16,32,23.40
2006,07,04,16,33,23.30
2006,07,04,16,34,23.30
2006,07,04,16,35,23.30
2006,07,04,16,36,23.30
2006,07,04,16,37,23.20
2006,07,04,16,38,23.20
2006,07,04,16,39,23.10
2006,07,04,16,40,23.10
2006,07,04,16,41,23.10
2006,07,04,16,42,23.10
2006,07,04,16,43,23.20
2006,07,04,16,44,23.20
2006,07,04,16,45,23.20
2006,07,04,16,46,23.20
2006,07,04,16,47,23.10
2006,07,04,16,48,23.10
2006,07,04,16,49,23.10
2006,07,04,16,50,22.90
2006,07,04,16,51,22.90
2006,07,04,16,52,22.90
2006,07,04,16,53,22.80
2006,07,04,16,54,22.80
2006,07,04,16,55,22.70
2006,07,04,16,56,22.60
2006,07,04,16,57,22.50
2006,07,04,16,58,22.50
2006,07,04,16,59,22.50
2006,07,04,17,00,22.50
2006,07,04,17,01,22.50
2006,07,04,17,02,22.70
2006,07,04,17,03,22.80
2006,07,04,17,04,22.90
2006,07,04,17,05,22.90
2006,07,04,17,06,22.90
2006,07,04,17,07,22.90
2006,07,04,17,08,23.00
2006,07,04,17,09,23.10
2006,07,04,17,10,23.20
2006,07,04,17,11,23.10
2006,07,04,17,12,23.10
2006,07,04,17,13,23.20
2006,07,04,17,14,23.20
2006,07,04,17,15,23.30
2006,07,04,17,16,23.30
2006,07,04,17,17,23.30
2006,07,04,17,18,23.30
2006,07,04,17,19,23.30